User: anonymous   Login
Location: Observatorio Las Palmas
(29.0667°N, 110.9333°W)
Time: 17:10:19
(UTC-07:00)
Language:

Skynet4D Del rocket - Orbit

View from above orbital plane
View from above orbital plane
View from above satellite
View from above satellite

Ground track
Ground track

The orbit data is extracted from the following two-line orbital elements,

1 25135U 98002B   16270.03697029  .00000192  00000-0  62652-4 0  9994
2 25135  26.8836 115.4019 0356426 150.8493  10.0682 13.62339734932471
Epoch (UTC): 26 September 2016 00:53:14
Eccentricity: 0.0356426
inclination: 26.8836°
perigee height: 763 km
apogee height: 1291 km
right ascension of ascending node: 115.4019°
argument of perigee: 150.8493°
revolutions per day: 13.62339734
mean anomaly at epoch: 10.0682°
orbit number at epoch: 93247

The dashed part of the orbit path shows where the satellite is in the earth's shadow,  

DLR